| time (UTC) | temp F | wind direction | speed MPH | gust MPH | rain 1hr in | rain 24hr in | rain mn in | humidity % | barometer mb |
| 20260902042315 | 62 | 149 | 0.0 | 0.0 | 0.00 | 0.00 | 0.00 | 55 | 1005.5 |
| 20260902041810 | 63 | 149 | 0.0 | 0.0 | 0.00 | 0.00 | 0.00 | 56 | 1005.5 |
| 20260902041311 | 64 | 149 | 0.0 | 0.0 | 0.00 | 0.00 | 0.00 | 52 | 1005.4 |
| 20260902040809 | 64 | 151 | 1.0 | 1.0 | 0.00 | 0.00 | 0.00 | 51 | 1005.1 |
| 20260902040306 | 65 | 146 | 0.0 | 0.0 | 0.00 | 0.00 | 0.00 | 50 | 1005.2 |
| 20260902035804 | 65 | 159 | 0.0 | 0.0 | 0.00 | 0.00 | 0.00 | 51 | 1005.2 |
| 20260902035300 | 66 | 151 | 0.0 | 0.0 | 0.00 | 0.00 | 0.00 | 50 | 1005.1 |
| 20260902034758 | 67 | 152 | 0.0 | 0.0 | 0.00 | 0.00 | 0.00 | 49 | 1005.3 |
| 20260902034254 | 68 | 139 | 0.0 | 0.0 | 0.00 | 0.00 | 0.00 | 46 | 1004.9 |
| 20260902033751 | 69 | 128 | 0.0 | 0.0 | 0.00 | 0.00 | 0.00 | 45 | 1004.7 |
| 20260902033247 | 68 | 114 | 0.0 | 0.0 | 0.00 | 0.00 | 0.00 | 45 | 1004.8 |
| 20260902032745 | 68 | 140 | 0.0 | 0.0 | 0.00 | 0.00 | 0.00 | 46 | 1004.7 |
| 20260902032241 | 68 | 141 | 0.0 | 0.0 | 0.00 | 0.00 | 0.00 | 46 | 1004.5 |
| 20260902031740 | 69 | 131 | 0.0 | 0.0 | 0.00 | 0.00 | 0.00 | 46 | 1004.3 |
| 20260902031236 | 69 | 144 | 2.0 | 2.0 | 0.00 | 0.00 | 0.00 | 45 | 1004.3 |
| 20260902030731 | 70 | 148 | 1.0 | 1.0 | 0.00 | 0.00 | 0.00 | 44 | 1004.3 |
| 20260902030225 | 71 | 131 | 0.0 | 0.0 | 0.00 | 0.00 | 0.00 | 43 | 1004.1 |
| 20260902025724 | 72 | 128 | 0.0 | 0.0 | 0.00 | 0.00 | 0.00 | 41 | 1004.0 |
| 20260902025220 | 72 | 334 | 4.0 | 6.0 | 0.00 | 0.00 | 0.00 | 40 | 1004.0 |
| 20260902024715 | 72 | 235 | 2.0 | 2.0 | 0.00 | 0.00 | 0.00 | 41 | 1003.9 |
| 20260902024211 | 73 | 123 | 0.0 | 1.0 | 0.00 | 0.00 | 0.00 | 40 | 1003.9 |
| 20260902023706 | 73 | 44 | 3.0 | 3.0 | 0.00 | 0.00 | 0.00 | 40 | 1003.8 |
| 20260902023201 | 73 | 74 | 2.0 | 2.0 | 0.00 | 0.00 | 0.00 | 39 | 1003.5 |
| 20260902022700 | 74 | 149 | 1.0 | 2.0 | 0.00 | 0.00 | 0.00 | 39 | 1003.8 |
| 20260902022156 | 74 | 279 | 4.0 | 7.0 | 0.00 | 0.00 | 0.00 | 39 | 1003.3 |
| 20260902021652 | 75 | 227 | 5.0 | 6.0 | 0.00 | 0.00 | 0.00 | 37 | 1003.4 |
| 20260902021146 | 75 | 244 | 6.0 | 8.0 | 0.00 | 0.00 | 0.00 | 37 | 1003.7 |
| 20260902020643 | 76 | 274 | 7.0 | 9.0 | 0.00 | 0.00 | 0.00 | 37 | 1003.4 |
| 20260902020138 | 77 | 210 | 5.0 | 6.0 | 0.00 | 0.00 | 0.00 | 35 | 1003.3 |
| 20260902015633 | 78 | 221 | 2.0 | 2.0 | 0.00 | 0.00 | 0.00 | 33 | 1003.4 |
| 20260902015130 | 78 | 258 | 7.0 | 8.0 | 0.00 | 0.00 | 0.00 | 33 | 1003.3 |
| 20260902014625 | 78 | 184 | 2.0 | 2.0 | 0.00 | 0.00 | 0.00 | 32 | 1003.3 |
| 20260902014121 | 78 | 149 | 0.0 | 0.0 | 0.00 | 0.00 | 0.00 | 32 | 1003.3 |
| 20260902013620 | 78 | 131 | 0.0 | 0.0 | 0.00 | 0.00 | 0.00 | 32 | 1003.4 |
| 20260902013116 | 78 | 131 | 0.0 | 0.0 | 0.00 | 0.00 | 0.00 | 31 | 1003.4 |
| 20260902012611 | 79 | 158 | 1.0 | 2.0 | 0.00 | 0.00 | 0.00 | 31 | 1003.4 |
| 20260902012106 | 79 | 158 | 0.0 | 1.0 | 0.00 | 0.00 | 0.00 | 31 | 1003.7 |
| 20260902011602 | 79 | 146 | 4.0 | 4.0 | 0.00 | 0.00 | 0.00 | 30 | 1003.5 |
| 20260902011101 | 79 | 173 | 3.0 | 3.0 | 0.00 | 0.00 | 0.00 | 30 | 1003.7 |
| 20260902010600 | 80 | 163 | 3.0 | 4.0 | 0.00 | 0.00 | 0.00 | 30 | 1003.3 |
| 20260902010057 | 80 | 165 | 2.0 | 2.0 | 0.00 | 0.00 | 0.00 | 30 | 1003.8 |
| 20260902005554 | 80 | 158 | 5.0 | 8.0 | 0.00 | 0.00 | 0.00 | 30 | 1003.5 |
| 20260902005051 | 80 | 176 | 3.0 | 6.0 | 0.00 | 0.00 | 0.00 | 29 | 1003.4 |
| 20260902004549 | 80 | 186 | 5.0 | 7.0 | 0.00 | 0.00 | 0.00 | 29 | 1003.2 |
| 20260902004045 | 81 | 177 | 15.0 | 16.0 | 0.00 | 0.00 | 0.00 | 29 | 1003.4 |
| 20260902003540 | 81 | 169 | 5.0 | 7.0 | 0.00 | 0.00 | 0.00 | 30 | 1003.4 |
| 20260902003036 | 81 | 172 | 2.0 | 3.0 | 0.00 | 0.00 | 0.00 | 30 | 1003.5 |
| 20260902002531 | 81 | 148 | 7.0 | 8.0 | 0.00 | 0.00 | 0.00 | 30 | 1003.3 |
| 20260902002020 | 81 | 134 | 6.0 | 10.0 | 0.00 | 0.00 | 0.00 | 30 | 1003.5 |
| 20260902001515 | 81 | 185 | 11.0 | 14.0 | 0.00 | 0.00 | 0.00 | 30 | 1003.5 |
| 20260902001010 | 81 | 198 | 8.0 | 9.0 | 0.00 | 0.00 | 0.00 | 30 | 1003.4 |
| 20260902000505 | 81 | 169 | 10.0 | 13.0 | 0.00 | 0.00 | 0.00 | 30 | 1003.9 |
| 20260902000000 | 82 | 168 | 8.0 | 10.0 | 0.00 | 0.00 | 0.00 | 29 | 1003.8 |
| 20260901235454 | 82 | 163 | 8.0 | 10.0 | 0.00 | 0.00 | 0.00 | 30 | 1003.9 |
| 20260901234950 | 82 | 140 | 9.0 | 17.0 | 0.00 | 0.00 | 0.00 | 30 | 1003.9 |
| 20260901234444 | 82 | 177 | 5.0 | 6.0 | 0.00 | 0.00 | 0.00 | 30 | 1004.0 |
| 20260901233939 | 82 | 179 | 8.0 | 13.0 | 0.00 | 0.00 | 0.00 | 30 | 1004.0 |
| 20260901233434 | 82 | 147 | 3.0 | 3.0 | 0.00 | 0.00 | 0.00 | 30 | 1004.1 |
| 20260901232930 | 82 | 163 | 8.0 | 10.0 | 0.00 | 0.00 | 0.00 | 30 | 1004.2 |
| 20260901232430 | 82 | 209 | 6.0 | 8.0 | 0.00 | 0.00 | 0.00 | 30 | 1004.3 |
| 20260901231925 | 82 | 192 | 2.0 | 3.0 | 0.00 | 0.00 | 0.00 | 31 | 1004.0 |
| 20260901231422 | 82 | 186 | 6.0 | 7.0 | 0.00 | 0.00 | 0.00 | 31 | 1004.3 |
| 20260901230918 | 81 | 190 | 10.0 | 15.0 | 0.00 | 0.00 | 0.00 | 31 | 1004.2 |
| 20260901230417 | 81 | 151 | 8.0 | 14.0 | 0.00 | 0.00 | 0.00 | 33 | 1004.3 |
| 20260901225913 | 82 | 145 | 4.0 | 6.0 | 0.00 | 0.00 | 0.00 | 33 | 1004.4 |
| 20260901225407 | 81 | 194 | 11.0 | 15.0 | 0.00 | 0.00 | 0.00 | 34 | 1004.5 |
| 20260901224902 | 82 | 182 | 5.0 | 7.0 | 0.00 | 0.00 | 0.00 | 34 | 1004.5 |
| 20260901224358 | 83 | 170 | 4.0 | 6.0 | 0.00 | 0.00 | 0.00 | 34 | 1004.9 |
| 20260901223854 | 81 | 191 | 3.0 | 3.0 | 0.00 | 0.00 | 0.00 | 36 | 1004.8 |
| 20260901223349 | 81 | 148 | 1.0 | 2.0 | 0.00 | 0.00 | 0.00 | 36 | 1005.1 |
| 20260901222845 | 80 | 175 | 2.0 | 3.0 | 0.00 | 0.00 | 0.00 | 37 | 1005.1 |
| 20260901222342 | 80 | 142 | 1.0 | 1.0 | 0.00 | 0.00 | 0.00 | 37 | 1005.2 |
| 20260901221837 | 81 | 168 | 7.0 | 9.0 | 0.00 | 0.00 | 0.00 | 37 | 1005.3 |
| 20260901221332 | 80 | 155 | 5.0 | 7.0 | 0.00 | 0.00 | 0.00 | 37 | 1005.4 |
| 20260901220832 | 78 | 157 | 2.0 | 2.0 | 0.00 | 0.00 | 0.00 | 39 | 1005.5 |
| 20260901220331 | 77 | 166 | 2.0 | 3.0 | 0.00 | 0.00 | 0.00 | 39 | 1005.3 |
| 20260901215830 | 77 | 167 | 4.0 | 4.0 | 0.00 | 0.00 | 0.00 | 39 | 1005.5 |
| 20260901215329 | 77 | 146 | 3.0 | 4.0 | 0.00 | 0.00 | 0.00 | 38 | 1005.6 |
| 20260901214828 | 77 | 148 | 6.0 | 8.0 | 0.00 | 0.00 | 0.00 | 39 | 1005.6 |
| 20260901214327 | 77 | 156 | 2.0 | 4.0 | 0.00 | 0.00 | 0.00 | 39 | 1005.6 |
| 20260901213822 | 78 | 177 | 4.0 | 8.0 | 0.00 | 0.00 | 0.00 | 38 | 1005.6 |
| 20260901213322 | 77 | 209 | 8.0 | 11.0 | 0.00 | 0.00 | 0.00 | 40 | 1005.7 |
| 20260901212816 | 77 | 176 | 4.0 | 7.0 | 0.00 | 0.00 | 0.00 | 40 | 1005.8 |
| 20260901212312 | 78 | 181 | 3.0 | 4.0 | 0.00 | 0.00 | 0.00 | 39 | 1005.8 |
| 20260901211808 | 78 | 219 | 3.0 | 3.0 | 0.00 | 0.00 | 0.00 | 39 | 1005.7 |
| 20260901211304 | 77 | 150 | 2.0 | 3.0 | 0.00 | 0.00 | 0.00 | 38 | 1006.0 |
| 20260901210759 | 78 | 150 | 2.0 | 3.0 | 0.00 | 0.00 | 0.00 | 38 | 1006.0 |
| 20260901210255 | 77 | 181 | 4.0 | 7.0 | 0.00 | 0.00 | 0.00 | 38 | 1005.9 |
| 20260901205751 | 77 | 188 | 2.0 | 3.0 | 0.00 | 0.00 | 0.00 | 38 | 1006.1 |
| 20260901205250 | 77 | 154 | 4.0 | 7.0 | 0.00 | 0.00 | 0.00 | 38 | 1006.0 |
| 20260901204745 | 78 | 140 | 1.0 | 1.0 | 0.00 | 0.00 | 0.00 | 37 | 1006.1 |
| 20260901204236 | 79 | 152 | 1.0 | 2.0 | 0.00 | 0.00 | 0.00 | 37 | 1006.4 |
| 20260901203731 | 79 | 175 | 4.0 | 4.0 | 0.00 | 0.00 | 0.00 | 37 | 1006.4 |
| 20260901203231 | 79 | 149 | 0.0 | 0.0 | 0.00 | 0.00 | 0.00 | 37 | 1006.4 |
| 20260901202730 | 79 | 143 | 3.0 | 3.0 | 0.00 | 0.00 | 0.00 | 38 | 1006.5 |
| 20260901202226 | 80 | 181 | 3.0 | 3.0 | 0.00 | 0.00 | 0.00 | 36 | 1006.4 |
| 20260901201721 | 79 | 136 | 1.0 | 1.0 | 0.00 | 0.00 | 0.00 | 37 | 1006.4 |
| 20260901201220 | 80 | 165 | 5.0 | 7.0 | 0.00 | 0.00 | 0.00 | 35 | 1006.5 |
| 20260901200714 | 79 | 125 | 3.0 | 3.0 | 0.00 | 0.00 | 0.00 | 37 | 1006.5 |
| 20260901200210 | 78 | 188 | 3.0 | 3.0 | 0.00 | 0.00 | 0.00 | 38 | 1006.5 |
| 20260901195707 | 77 | 178 | 3.0 | 4.0 | 0.00 | 0.00 | 0.00 | 39 | 1006.6 |
| 20260901195201 | 77 | 144 | 1.0 | 2.0 | 0.00 | 0.00 | 0.00 | 40 | 1006.8 |
| 20260901194658 | 76 | 159 | 4.0 | 4.0 | 0.00 | 0.00 | 0.00 | 40 | 1006.6 |
| 20260901194147 | 75 | 146 | 0.0 | 1.0 | 0.00 | 0.00 | 0.00 | 42 | 1006.8 |
| 20260901193642 | 75 | 139 | 4.0 | 4.0 | 0.00 | 0.00 | 0.00 | 41 | 1006.8 |
| 20260901193137 | 75 | 189 | 7.0 | 8.0 | 0.00 | 0.00 | 0.00 | 42 | 1007.0 |
| 20260901192631 | 75 | 145 | 4.0 | 6.0 | 0.00 | 0.00 | 0.00 | 42 | 1007.2 |
| 20260901192126 | 74 | 214 | 3.0 | 6.0 | 0.00 | 0.00 | 0.00 | 43 | 1007.3 |
| 20260901191623 | 73 | 153 | 2.0 | 4.0 | 0.00 | 0.00 | 0.00 | 44 | 1007.4 |
| 20260901191119 | 73 | 196 | 2.0 | 3.0 | 0.00 | 0.00 | 0.00 | 44 | 1007.7 |
| 20260901190614 | 73 | 164 | 0.0 | 0.0 | 0.00 | 0.00 | 0.00 | 44 | 1007.7 |
| 20260901190114 | 72 | 147 | 3.0 | 4.0 | 0.00 | 0.00 | 0.00 | 44 | 1007.5 |
| 20260901185612 | 73 | 133 | 4.0 | 7.0 | 0.00 | 0.00 | 0.00 | 43 | 1007.4 |
| 20260901185111 | 73 | 147 | 1.0 | 2.0 | 0.00 | 0.00 | 0.00 | 43 | 1007.5 |
| 20260901184606 | 73 | 179 | 2.0 | 3.0 | 0.00 | 0.00 | 0.00 | 42 | 1007.5 |
| 20260901184101 | 73 | 129 | 3.0 | 6.0 | 0.00 | 0.00 | 0.00 | 42 | 1007.9 |
| 20260901183556 | 73 | 156 | 4.0 | 7.0 | 0.00 | 0.00 | 0.00 | 41 | 1008.0 |
| 20260901183052 | 72 | 190 | 9.0 | 15.0 | 0.00 | 0.00 | 0.00 | 41 | 1007.8 |
| 20260901182548 | 67 | 163 | 3.0 | 4.0 | 0.00 | 0.00 | 0.00 | 44 | 1007.9 |
| 20260901182048 | 66 | 122 | 0.0 | 1.0 | 0.00 | 0.00 | 0.00 | 42 | 1008.0 |
| 20260901181547 | 66 | 144 | 0.0 | 0.0 | 0.00 | 0.00 | 0.00 | 42 | 1007.8 |
| 20260901181046 | 65 | 151 | 0.0 | 0.0 | 0.00 | 0.00 | 0.00 | 43 | 1008.0 |
| 20260901180545 | 65 | 141 | 0.0 | 0.0 | 0.00 | 0.00 | 0.00 | 44 | 1007.7 |
| 20260901180040 | 64 | 121 | 0.0 | 0.0 | 0.00 | 0.00 | 0.00 | 42 | 1007.3 |
| 20260901175539 | 64 | 124 | 0.0 | 0.0 | 0.00 | 0.00 | 0.00 | 42 | 1007.4 |
| 20260901175034 | 64 | 96 | 0.0 | 1.0 | 0.00 | 0.00 | 0.00 | 42 | 1007.3 |
| 20260901174530 | 64 | 141 | 1.0 | 1.0 | 0.00 | 0.00 | 0.00 | 42 | 1007.4 |
| 20260901174026 | 63 | 261 | 4.0 | 4.0 | 0.00 | 0.00 | 0.00 | 43 | 1007.2 |
| 20260901173526 | 63 | 164 | 0.0 | 1.0 | 0.00 | 0.00 | 0.00 | 43 | 1007.0 |
| 20260901173022 | 63 | 91 | 0.0 | 1.0 | 0.00 | 0.00 | 0.00 | 46 | 1006.9 |
| 20260901172517 | 63 | 98 | 1.0 | 1.0 | 0.00 | 0.00 | 0.00 | 46 | 1007.3 |
| 20260901172015 | 63 | 74 | 3.0 | 3.0 | 0.00 | 0.00 | 0.00 | 42 | 1007.1 |
| 20260901171515 | 63 | 139 | 0.0 | 0.0 | 0.00 | 0.00 | 0.00 | 42 | 1007.0 |
| 20260901171014 | 62 | 135 | 0.0 | 0.0 | 0.00 | 0.00 | 0.00 | 43 | 1007.2 |
| 20260901170508 | 62 | 143 | 0.0 | 0.0 | 0.00 | 0.00 | 0.00 | 43 | 1007.3 |
| 20260901170009 | 62 | 203 | 2.0 | 2.0 | 0.00 | 0.00 | 0.00 | 44 | 1007.1 |
| 20260901165503 | 62 | 116 | 1.0 | 1.0 | 0.00 | 0.00 | 0.00 | 41 | 1006.6 |
| 20260901164958 | 61 | 134 | 0.0 | 0.0 | 0.00 | 0.00 | 0.00 | 43 | 1006.6 |
| 20260901164454 | 61 | 130 | 0.0 | 0.0 | 0.00 | 0.00 | 0.00 | 44 | 1006.6 |
| 20260901163948 | 61 | 54 | 2.0 | 2.0 | 0.00 | 0.00 | 0.00 | 44 | 1006.6 |
| 20260901163444 | 61 | 123 | 0.0 | 0.0 | 0.00 | 0.00 | 0.00 | 46 | 1006.8 |
| 20260901162942 | 61 | 145 | 0.0 | 0.0 | 0.00 | 0.00 | 0.00 | 46 | 1007.0 |
| 20260901162438 | 60 | 139 | 0.0 | 0.0 | 0.00 | 0.00 | 0.00 | 46 | 1007.0 |
| 20260901161931 | 60 | 88 | 1.0 | 1.0 | 0.00 | 0.00 | 0.00 | 48 | 1007.3 |
| 20260901161431 | 60 | 70 | 2.0 | 2.0 | 0.00 | 0.00 | 0.00 | 47 | 1007.0 |
| 20260901160921 | 59 | 93 | 1.0 | 1.0 | 0.00 | 0.00 | 0.00 | 47 | 1007.2 |
| 20260901160416 | 58 | 42 | 1.0 | 2.0 | 0.00 | 0.00 | 0.00 | 47 | 1007.5 |
| 20260901155915 | 58 | 105 | 1.0 | 1.0 | 0.00 | 0.00 | 0.00 | 47 | 1007.4 |
| 20260901155410 | 58 | 242 | 2.0 | 3.0 | 0.00 | 0.00 | 0.00 | 49 | 1007.3 |
| 20260901154907 | 58 | 124 | 0.0 | 1.0 | 0.00 | 0.00 | 0.00 | 49 | 1007.5 |
| 20260901154406 | 56 | 144 | 0.0 | 0.0 | 0.00 | 0.00 | 0.00 | 51 | 1007.5 |
| 20260901153901 | 55 | 122 | 0.0 | 0.0 | 0.00 | 0.00 | 0.00 | 52 | 1007.8 |
| 20260901153400 | 55 | 163 | 0.0 | 0.0 | 0.00 | 0.00 | 0.00 | 54 | 1007.5 |
| 20260901152859 | 54 | 115 | 0.0 | 0.0 | 0.00 | 0.00 | 0.00 | 56 | 1007.4 |
| 20260901152354 | 53 | 194 | 1.0 | 1.0 | 0.00 | 0.00 | 0.00 | 57 | 1007.5 |
| 20260901151844 | 53 | 165 | 1.0 | 1.0 | 0.00 | 0.00 | 0.00 | 56 | 1007.3 |
| 20260901151343 | 54 | 148 | 1.0 | 2.0 | 0.00 | 0.00 | 0.00 | 56 | 1007.0 |
| 20260901150843 | 54 | 144 | 1.0 | 1.0 | 0.00 | 0.00 | 0.00 | 54 | 1007.2 |
| 20260901150340 | 53 | 140 | 1.0 | 1.0 | 0.00 | 0.00 | 0.00 | 56 | 1007.3 |
| 20260901145838 | 53 | 137 | 0.0 | 0.0 | 0.00 | 0.00 | 0.00 | 54 | 1007.0 |
| 20260901145333 | 52 | 137 | 0.0 | 0.0 | 0.00 | 0.00 | 0.00 | 56 | 1006.7 |
| 20260901144828 | 51 | 145 | 0.0 | 0.0 | 0.00 | 0.00 | 0.00 | 61 | 1006.7 |
| 20260901144323 | 51 | 136 | 0.0 | 0.0 | 0.00 | 0.00 | 0.00 | 61 | 1006.8 |
| 20260901143819 | 50 | 112 | 1.0 | 1.0 | 0.00 | 0.00 | 0.00 | 63 | 1006.8 |
| 20260901143316 | 50 | 134 | 0.0 | 0.0 | 0.00 | 0.00 | 0.00 | 63 | 1006.6 |
| 20260901142812 | 50 | 142 | 0.0 | 0.0 | 0.00 | 0.00 | 0.00 | 62 | 1006.6 |
| 20260901142310 | 51 | 122 | 0.0 | 1.0 | 0.00 | 0.00 | 0.00 | 61 | 1006.5 |
| 20260901141806 | 50 | 128 | 0.0 | 0.0 | 0.00 | 0.00 | 0.00 | 59 | 1006.0 |
| 20260901141301 | 50 | 122 | 0.0 | 0.0 | 0.00 | 0.00 | 0.00 | 60 | 1006.2 |
| 20260901140759 | 49 | 127 | 0.0 | 0.0 | 0.00 | 0.00 | 0.00 | 61 | 1006.4 |
| 20260901140258 | 49 | 126 | 0.0 | 0.0 | 0.00 | 0.00 | 0.00 | 61 | 1006.2 |
| 20260901135753 | 49 | 114 | 0.0 | 0.0 | 0.00 | 0.00 | 0.00 | 61 | 1006.0 |
| 20260901135253 | 49 | 140 | 0.0 | 0.0 | 0.00 | 0.00 | 0.00 | 62 | 1006.2 |
| 20260901134749 | 49 | 191 | 2.0 | 2.0 | 0.00 | 0.00 | 0.00 | 62 | 1006.4 |
| 20260901134248 | 48 | 172 | 0.0 | 1.0 | 0.00 | 0.00 | 0.00 | 64 | 1006.4 |
| 20260901133743 | 48 | 126 | 0.0 | 0.0 | 0.00 | 0.00 | 0.00 | 64 | 1006.4 |
| 20260901133242 | 48 | 124 | 0.0 | 0.0 | 0.00 | 0.00 | 0.00 | 65 | 1006.2 |
| 20260901132740 | 48 | 130 | 0.0 | 0.0 | 0.00 | 0.00 | 0.00 | 65 | 1006.4 |
| 20260901132236 | 48 | 138 | 0.0 | 0.0 | 0.00 | 0.00 | 0.00 | 65 | 1006.2 |
| 20260901131730 | 48 | 132 | 0.0 | 0.0 | 0.00 | 0.00 | 0.00 | 66 | 1006.4 |
| 20260901131230 | 48 | 108 | 1.0 | 1.0 | 0.00 | 0.00 | 0.00 | 66 | 1006.5 |
| 20260901130725 | 47 | 122 | 0.0 | 0.0 | 0.00 | 0.00 | 0.00 | 66 | 1006.2 |
| 20260901130224 | 47 | 105 | 1.0 | 2.0 | 0.00 | 0.00 | 0.00 | 65 | 1006.2 |
| 20260901125722 | 47 | 116 | 0.0 | 0.0 | 0.00 | 0.00 | 0.00 | 66 | 1006.5 |
| 20260901125218 | 48 | 121 | 0.0 | 0.0 | 0.00 | 0.00 | 0.00 | 66 | 1006.4 |
| 20260901124712 | 48 | 160 | 0.0 | 0.0 | 0.00 | 0.00 | 0.00 | 66 | 1006.4 |
| 20260901124206 | 48 | 160 | 0.0 | 0.0 | 0.00 | 0.00 | 0.00 | 66 | 1006.5 |
| 20260901123701 | 47 | 160 | 0.0 | 0.0 | 0.00 | 0.00 | 0.00 | 67 | 1006.4 |
| 20260901123155 | 47 | 160 | 0.0 | 0.0 | 0.00 | 0.00 | 0.00 | 67 | 1006.5 |
| 20260901122653 | 47 | 161 | 0.0 | 0.0 | 0.00 | 0.00 | 0.00 | 67 | 1006.4 |
| 20260901122148 | 46 | 163 | 0.0 | 1.0 | 0.00 | 0.00 | 0.00 | 68 | 1006.4 |
| 20260901121643 | 46 | 154 | 0.0 | 0.0 | 0.00 | 0.00 | 0.00 | 67 | 1006.6 |
| 20260901121138 | 46 | 153 | 0.0 | 1.0 | 0.00 | 0.00 | 0.00 | 68 | 1006.5 |
| 20260901120633 | 47 | 154 | 1.0 | 1.0 | 0.00 | 0.00 | 0.00 | 68 | 1006.2 |
| 20260901120128 | 47 | 154 | 1.0 | 1.0 | 0.00 | 0.00 | 0.00 | 69 | 1006.1 |
| 20260901115623 | 47 | 153 | 1.0 | 1.0 | 0.00 | 0.00 | 0.00 | 69 | 1006.1 |
| 20260901115119 | 47 | 119 | 0.0 | 0.0 | 0.00 | 0.00 | 0.00 | 68 | 1006.5 |
| 20260901114615 | 47 | 119 | 0.0 | 0.0 | 0.00 | 0.00 | 0.00 | 66 | 1006.4 |
| 20260901114109 | 47 | 117 | 0.0 | 0.0 | 0.00 | 0.00 | 0.00 | 64 | 1006.5 |
| 20260901113607 | 48 | 131 | 0.0 | 0.0 | 0.00 | 0.00 | 0.00 | 63 | 1006.5 |
| 20260901113058 | 48 | 140 | 0.0 | 1.0 | 0.00 | 0.00 | 0.00 | 62 | 1006.4 |
| 20260901112557 | 48 | 132 | 0.0 | 0.0 | 0.00 | 0.00 | 0.00 | 62 | 1006.5 |
| 20260901112052 | 48 | 145 | 0.0 | 0.0 | 0.00 | 0.00 | 0.00 | 61 | 1006.5 |
| 20260901111550 | 48 | 135 | 0.0 | 1.0 | 0.00 | 0.00 | 0.00 | 60 | 1006.6 |
| 20260901111049 | 48 | 135 | 0.0 | 0.0 | 0.00 | 0.00 | 0.00 | 59 | 1006.5 |
| 20260901110545 | 48 | 132 | 0.0 | 0.0 | 0.00 | 0.00 | 0.00 | 61 | 1006.5 |
| 20260901110040 | 48 | 105 | 0.0 | 1.0 | 0.00 | 0.00 | 0.00 | 60 | 1006.5 |
| 20260901105537 | 48 | 124 | 0.0 | 0.0 | 0.00 | 0.00 | 0.00 | 60 | 1006.8 |
| 20260901105030 | 48 | 125 | 0.0 | 0.0 | 0.00 | 0.00 | 0.00 | 60 | 1006.7 |
| 20260901104527 | 48 | 125 | 0.0 | 0.0 | 0.00 | 0.00 | 0.00 | 60 | 1006.5 |
| 20260901104022 | 48 | 136 | 0.0 | 0.0 | 0.00 | 0.00 | 0.00 | 61 | 1006.8 |
| 20260901103522 | 47 | 144 | 0.0 | 0.0 | 0.00 | 0.00 | 0.00 | 61 | 1006.9 |
| 20260901103017 | 47 | 147 | 0.0 | 0.0 | 0.00 | 0.00 | 0.00 | 61 | 1007.0 |
| 20260901102512 | 47 | 117 | 0.0 | 0.0 | 0.00 | 0.00 | 0.00 | 62 | 1006.9 |
| 20260901102006 | 47 | 116 | 0.0 | 0.0 | 0.00 | 0.00 | 0.00 | 63 | 1006.9 |
| 20260901101501 | 47 | 115 | 0.0 | 0.0 | 0.00 | 0.00 | 0.00 | 62 | 1007.1 |
| 20260901100956 | 47 | 115 | 0.0 | 0.0 | 0.00 | 0.00 | 0.00 | 62 | 1006.9 |
| 20260901100451 | 48 | 115 | 0.0 | 0.0 | 0.00 | 0.00 | 0.00 | 62 | 1007.0 |
| 20260901095949 | 48 | 116 | 0.0 | 0.0 | 0.00 | 0.00 | 0.00 | 63 | 1006.8 |
| 20260901095449 | 48 | 115 | 0.0 | 0.0 | 0.00 | 0.00 | 0.00 | 66 | 1007.0 |
| 20260901094941 | 48 | 115 | 0.0 | 0.0 | 0.00 | 0.00 | 0.00 | 66 | 1006.8 |
| 20260901094441 | 48 | 116 | 0.0 | 0.0 | 0.00 | 0.00 | 0.00 | 66 | 1007.1 |
| 20260901093935 | 48 | 116 | 0.0 | 0.0 | 0.00 | 0.00 | 0.00 | 66 | 1007.0 |
| 20260901093430 | 48 | 116 | 0.0 | 0.0 | 0.00 | 0.00 | 0.00 | 64 | 1006.9 |
| 20260901092925 | 48 | 115 | 0.0 | 0.0 | 0.00 | 0.00 | 0.00 | 62 | 1006.9 |
| 20260901092421 | 48 | 115 | 0.0 | 0.0 | 0.00 | 0.00 | 0.00 | 61 | 1007.2 |
| 20260901091917 | 48 | 115 | 0.0 | 0.0 | 0.00 | 0.00 | 0.00 | 59 | 1007.2 |
| 20260901091416 | 49 | 115 | 0.0 | 0.0 | 0.00 | 0.00 | 0.00 | 57 | 1007.1 |
| 20260901090912 | 49 | 117 | 0.0 | 0.0 | 0.00 | 0.00 | 0.00 | 59 | 1007.1 |
| 20260901090411 | 49 | 116 | 0.0 | 0.0 | 0.00 | 0.00 | 0.00 | 57 | 1006.9 |
| 20260901085907 | 49 | 116 | 0.0 | 0.0 | 0.00 | 0.00 | 0.00 | 57 | 1007.0 |
| 20260901085403 | 49 | 115 | 0.0 | 0.0 | 0.00 | 0.00 | 0.00 | 56 | 1006.8 |
| 20260901084859 | 50 | 130 | 0.0 | 0.0 | 0.00 | 0.00 | 0.00 | 56 | 1006.9 |
| 20260901084354 | 50 | 130 | 0.0 | 0.0 | 0.00 | 0.00 | 0.00 | 57 | 1007.2 |
| 20260901083849 | 50 | 132 | 0.0 | 0.0 | 0.00 | 0.00 | 0.00 | 57 | 1007.1 |
| 20260901083344 | 50 | 132 | 0.0 | 0.0 | 0.00 | 0.00 | 0.00 | 59 | 1007.2 |
| 20260901082842 | 50 | 132 | 0.0 | 0.0 | 0.00 | 0.00 | 0.00 | 59 | 1007.1 |
| 20260901082338 | 50 | 132 | 0.0 | 0.0 | 0.00 | 0.00 | 0.00 | 56 | 1007.2 |
| 20260901081833 | 51 | 132 | 0.0 | 0.0 | 0.00 | 0.00 | 0.00 | 57 | 1007.0 |
| 20260901081328 | 51 | 130 | 0.0 | 0.0 | 0.00 | 0.00 | 0.00 | 57 | 1007.2 |
| 20260901080828 | 51 | 131 | 0.0 | 0.0 | 0.00 | 0.00 | 0.00 | 57 | 1007.2 |
| 20260901080322 | 51 | 131 | 0.0 | 0.0 | 0.00 | 0.00 | 0.00 | 55 | 1007.4 |
| 20260901075816 | 51 | 129 | 0.0 | 0.0 | 0.00 | 0.00 | 0.00 | 54 | 1007.1 |
| 20260901075311 | 52 | 126 | 0.0 | 0.0 | 0.00 | 0.00 | 0.00 | 55 | 1007.3 |
| 20260901074807 | 52 | 127 | 0.0 | 0.0 | 0.00 | 0.00 | 0.00 | 53 | 1007.3 |
| 20260901074301 | 52 | 133 | 0.0 | 0.0 | 0.00 | 0.00 | 0.00 | 52 | 1007.1 |
| 20260901073757 | 52 | 135 | 0.0 | 0.0 | 0.00 | 0.00 | 0.00 | 54 | 1007.2 |
| 20260901073252 | 52 | 136 | 0.0 | 0.0 | 0.00 | 0.00 | 0.00 | 54 | 1007.3 |
| 20260901072748 | 52 | 137 | 0.0 | 0.0 | 0.00 | 0.00 | 0.00 | 54 | 1007.1 |
| 20260901072242 | 53 | 136 | 0.0 | 0.0 | 0.00 | 0.00 | 0.00 | 54 | 1007.1 |
| 20260901071736 | 53 | 150 | 0.0 | 0.0 | 0.00 | 0.00 | 0.00 | 54 | 1007.1 |
| 20260901071231 | 52 | 151 | 0.0 | 0.0 | 0.00 | 0.00 | 0.00 | 56 | 1007.1 |
| 20260901070730 | 52 | 140 | 0.0 | 0.0 | 0.00 | 0.00 | 0.00 | 56 | 1007.2 |
| 20260901070225 | 53 | 140 | 0.0 | 0.0 | 0.00 | 0.00 | 0.00 | 56 | 1007.2 |
| 20260901065725 | 53 | 126 | 0.0 | 0.0 | 0.00 | 0.00 | 0.00 | 51 | 1007.2 |
| 20260901065220 | 53 | 123 | 0.0 | 0.0 | 0.00 | 0.00 | 0.00 | 50 | 1007.0 |
| 20260901064716 | 53 | 144 | 0.0 | 0.0 | 0.00 | 0.00 | 0.00 | 52 | 1007.2 |
| 20260901064212 | 53 | 129 | 0.0 | 0.0 | 0.00 | 0.00 | 0.00 | 51 | 1007.2 |
| 20260901063709 | 54 | 124 | 0.0 | 0.0 | 0.00 | 0.00 | 0.00 | 51 | 1007.3 |
| 20260901063205 | 54 | 124 | 0.0 | 0.0 | 0.00 | 0.00 | 0.00 | 52 | 1007.2 |
| 20260901062700 | 54 | 124 | 0.0 | 0.0 | 0.00 | 0.00 | 0.00 | 52 | 1007.2 |
| 20260901062156 | 54 | 152 | 1.0 | 1.0 | 0.00 | 0.00 | 0.00 | 53 | 1007.1 |
| 20260901061652 | 54 | 140 | 0.0 | 0.0 | 0.00 | 0.00 | 0.00 | 55 | 1007.2 |
| 20260901061152 | 55 | 147 | 0.0 | 0.0 | 0.00 | 0.00 | 0.00 | 54 | 1007.4 |
| 20260901060647 | 55 | 131 | 0.0 | 0.0 | 0.00 | 0.00 | 0.00 | 52 | 1007.3 |
| 20260901060142 | 55 | 109 | 0.0 | 1.0 | 0.00 | 0.00 | 0.00 | 51 | 1007.5 |
| 20260901055638 | 55 | 151 | 0.0 | 0.0 | 0.00 | 0.00 | 0.00 | 52 | 1007.4 |
| 20260901055134 | 56 | 154 | 0.0 | 0.0 | 0.00 | 0.00 | 0.00 | 50 | 1007.4 |
| 20260901054631 | 56 | 139 | 0.0 | 0.0 | 0.00 | 0.00 | 0.00 | 50 | 1007.4 |
| 20260901054127 | 57 | 148 | 1.0 | 1.0 | 0.00 | 0.00 | 0.00 | 49 | 1007.3 |
| 20260901053623 | 57 | 128 | 0.0 | 0.0 | 0.00 | 0.00 | 0.00 | 49 | 1007.4 |
| 20260901053118 | 57 | 138 | 0.0 | 0.0 | 0.00 | 0.00 | 0.00 | 47 | 1007.2 |
| 20260901052618 | 57 | 141 | 0.0 | 0.0 | 0.00 | 0.00 | 0.00 | 47 | 1007.3 |
| 20260901052114 | 57 | 151 | 0.0 | 0.0 | 0.00 | 0.00 | 0.00 | 48 | 1007.7 |
| 20260901051613 | 58 | 149 | 0.0 | 0.0 | 0.00 | 0.00 | 0.00 | 49 | 1007.5 |
| 20260901051112 | 58 | 133 | 0.0 | 0.0 | 0.00 | 0.00 | 0.00 | 48 | 1007.4 |
| 20260901050608 | 58 | 147 | 1.0 | 1.0 | 0.00 | 0.00 | 0.00 | 48 | 1007.4 |
| 20260901045557 | 59 | 156 | 0.0 | 0.0 | 0.00 | 0.00 | 0.00 | 40 | 1007.4 |
| 20260901045052 | 60 | 150 | 0.0 | 0.0 | 0.00 | 0.00 | 0.00 | 39 | 1007.4 |
| 20260901044548 | 60 | 127 | 0.0 | 0.0 | 0.00 | 0.00 | 0.00 | 39 | 1007.5 |
| 20260901044044 | 61 | 124 | 0.0 | 0.0 | 0.00 | 0.00 | 0.00 | 38 | 1007.5 |
| 20260901043539 | 61 | 118 | 0.0 | 0.0 | 0.00 | 0.00 | 0.00 | 37 | 1007.5 |
| 20260901043035 | 62 | 169 | 1.0 | 1.0 | 0.00 | 0.00 | 0.00 | 37 | 1007.4 |